K1HI Weather Reports


time (UTC)temp
F
wind
direction
speed
knots
gust
knots
rain 1hr
in
rain 24hr
in
rain mn
in
humidity
%
barometer
mb
20260509053646 50 178 0.9 4.3 0.00 0.00 0.00 62 1005.1
20260509053144 51 178 0.0 0.0 0.00 0.00 0.00 58 1005.0
20260509052645 51 178 0.0 0.0 0.00 0.00 0.00 55 1005.0
20260509052146 50 178 0.0 0.0 0.00 0.00 0.00 54 1005.1
20260509051645 50 221 0.0 0.0 0.00 0.00 0.00 51 1005.3
20260509051144 51 221 0.0 0.0 0.00 0.00 0.00 48 1005.2
20260509050645 51 221 0.0 0.0 0.00 0.00 0.00 47 1005.2
20260509050144 50 221 0.0 0.0 0.00 0.00 0.00 48 1005.3
20260509045644 50 221 0.0 0.0 0.00 0.00 0.00 50 1005.3
20260509045144 50 221 0.0 0.0 0.00 0.00 0.00 47 1005.2
20260509044644 51 221 0.0 0.0 0.00 0.00 0.00 47 1005.2
20260509044145 50 221 0.0 0.0 0.00 0.00 0.00 48 1005.3
20260509043933 50 221 0.0 0.9 0.00 0.00 0.00 47 1005.3
20260509043144 50 221 0.0 0.9 0.00 0.00 0.00 47 1005.5
20260509042954 50 304 0.0 0.0 0.00 0.00 0.00 48 1005.5
20260509042645 50 294 0.0 0.0 0.00 0.00 0.00 47 1005.5
20260509041938 50 304 0.0 0.0 0.00 0.00 0.00 48 1005.5
20260509041144 50 304 0.0 0.0 0.00 0.00 0.00 49 1005.6
20260509040643 49 304 0.0 0.0 0.00 0.00 0.00 49 1005.6
20260509040144 49 304 0.0 0.9 0.00 0.00 0.00 49 1005.7
20260509035942 49 304 0.0 0.9 0.00 0.00 0.00 50 1005.6
20260509035140 47 304 0.0 0.0 0.00 0.00 0.00 52 1005.7
20260509034629 47 304 0.0 0.0 0.00 0.00 0.00 59 1005.8
20260509034129 45 304 0.0 0.0 0.00 0.00 0.00 60 1005.9
20260509033630 45 304 0.0 0.0 0.00 0.00 0.00 65 1005.7
20260509033134 45 304 0.0 0.0 0.00 0.00 0.00 67 1005.8
20260509032629 45 304 0.0 0.0 0.00 0.00 0.00 67 1005.8
20260509032129 45 304 0.0 0.0 0.00 0.00 0.00 66 1005.9
20260509031629 45 304 0.0 0.0 0.00 0.00 0.00 66 1006.0
20260509031129 46 304 0.0 0.0 0.00 0.00 0.00 65 1006.1
20260509030630 46 304 0.0 0.0 0.00 0.00 0.00 64 1006.2
20260509030132 46 304 0.0 0.0 0.00 0.00 0.00 63 1006.3
20260509025630 47 304 0.0 0.0 0.00 0.00 0.00 59 1006.3
20260509025132 47 304 0.0 0.0 0.00 0.00 0.00 58 1006.3
20260509024933 47 304 0.0 0.0 0.00 0.00 0.00 58 1006.3
20260509024927 47 304 0.0 0.0 0.00 0.00 0.00 59 1006.3
20260509023630 47 304 0.0 0.0 0.00 0.00 0.00 55 1006.4
20260509023213 48 304 0.0 0.0 0.00 0.00 0.00 59 1006.4
20260509023204 47 304 0.0 0.0 0.00 0.00 0.00 58 1006.3
20260509022131 48 304 0.0 0.0 0.00 0.00 0.00 52 1006.3
20260509021630 48 304 0.0 0.0 0.00 0.00 0.00 53 1006.4
20260509021132 48 304 0.0 0.0 0.00 0.00 0.00 53 1006.6
20260509020911 49 304 0.0 0.0 0.00 0.00 0.00 52 1006.5
20260509020130 49 304 0.0 0.0 0.00 0.00 0.00 50 1006.5
20260509015631 48 304 0.0 0.0 0.00 0.00 0.00 53 1006.6
20260509015130 49 304 0.0 0.0 0.00 0.00 0.00 50 1006.5
20260509014627 50 304 0.0 0.0 0.00 0.00 0.00 47 1006.4
20260509014409 50 304 0.0 0.0 0.00 0.00 0.00 47 1006.4
20260509013624 50 304 0.0 0.0 0.00 0.00 0.00 52 1006.4
20260509013125 51 304 0.0 0.0 0.00 0.00 0.00 46 1006.3
20260509012625 51 304 0.0 0.0 0.00 0.00 0.00 50 1006.3
20260509012122 51 304 0.0 0.0 0.00 0.00 0.00 42 1006.3
20260509011617 52 304 0.0 0.0 0.00 0.00 0.00 41 1006.3
20260509011117 52 304 0.0 0.0 0.00 0.00 0.00 46 1006.4
20260509010614 53 304 0.0 0.9 0.00 0.00 0.00 41 1006.3
20260509010113 53 304 0.9 0.9 0.00 0.00 0.00 38 1006.3
20260509005855 54 304 0.0 0.9 0.00 0.00 0.00 37 1006.3
20260509005112 55 304 0.0 0.0 0.00 0.00 0.00 35 1006.3
20260509004613 55 304 0.0 0.0 0.00 0.00 0.00 35 1006.3
20260509004351 56 304 0.0 0.0 0.00 0.00 0.00 30 1006.3
20260509003613 56 304 0.0 0.0 0.00 0.00 0.00 30 1006.3
20260509003112 56 304 0.0 0.0 0.00 0.00 0.00 29 1006.3
20260509002608 56 304 0.0 0.0 0.00 0.00 0.00 29 1006.3
20260509002110 57 304 0.0 0.9 0.00 0.00 0.00 29 1006.3
20260509001851 57 304 0.0 0.9 0.00 0.00 0.00 28 1006.4
20260509001153 58 304 0.0 0.9 0.00 0.00 0.00 27 1006.5
20260509001140 58 304 0.0 0.9 0.00 0.00 0.00 28 1006.5
20260509000108 59 304 0.0 0.9 0.00 0.00 0.00 28 1006.5
20260508235611 59 304 0.0 4.3 0.00 0.00 0.00 26 1006.6
20260508235107 59 304 0.9 4.3 0.00 0.00 0.00 28 1006.7
20260508234603 60 293 0.9 4.3 0.00 0.00 0.00 28 1006.8
20260508234356 60 273 0.9 3.5 0.00 0.00 0.00 27 1006.8
20260508233601 60 266 0.9 4.3 0.00 0.00 0.00 27 1006.7
20260508233345 60 279 2.6 7.0 0.00 0.00 0.00 26 1006.8
20260508232602 60 237 2.6 7.0 0.00 0.00 0.00 24 1006.8
20260508232102 60 126 2.6 7.0 0.00 0.00 0.00 26 1006.8
20260508231602 61 227 2.6 7.0 0.00 0.00 0.00 27 1006.8
20260508231102 61 234 2.6 4.3 0.00 0.00 0.00 26 1006.8
20260508230900 61 221 2.6 7.8 0.00 0.00 0.00 26 1006.7
20260508225602 61 170 2.6 7.0 0.00 0.00 0.00 26 1006.8
20260508225103 62 203 2.6 5.2 0.00 0.00 0.00 27 1006.7
20260508224602 62 219 2.6 4.3 0.00 0.00 0.00 25 1006.7
20260508224340 62 227 2.6 4.3 0.00 0.00 0.00 22 1006.7
20260508223601 62 269 2.6 7.8 0.00 0.00 0.00 23 1006.7
20260508223347 62 238 2.6 7.8 0.00 0.00 0.00 21 1006.7
20260508222602 62 315 2.6 11.3 0.00 0.00 0.00 23 1006.8
20260508222348 62 271 3.5 11.3 0.00 0.00 0.00 24 1006.8
20260508221600 62 271 3.5 10.4 0.00 0.00 0.00 22 1006.8
20260508221105 62 276 2.6 7.0 0.00 0.00 0.00 23 1006.8
20260508220601 62 294 2.6 7.0 0.00 0.00 0.00 23 1006.7
20260508220105 62 13 3.5 8.7 0.00 0.00 0.00 23 1006.8
20260508215705 62 341 2.6 7.0 0.00 0.00 0.00 26 1006.9
20260508215649 62 318 3.5 8.7 0.00 0.00 0.00 24 1006.9
20260508214605 63 224 3.5 7.0 0.00 0.00 0.00 24 1006.9
20260508214346 63 325 2.6 7.0 0.00 0.00 0.00 24 1006.7
20260508213603 63 324 2.6 7.0 0.00 0.00 0.00 22 1006.8
20260508213101 63 326 3.5 7.0 0.00 0.00 0.00 23 1006.8
20260508212846 63 222 3.5 11.3 0.00 0.00 0.00 26 1006.8
20260508212103 63 266 4.3 11.3 0.00 0.00 0.00 22 1006.9
20260508211604 63 218 3.5 11.3 0.00 0.00 0.00 24 1006.9
20260508211103 63 356 3.5 12.2 0.00 0.00 0.00 23 1006.9
20260508210603 63 289 4.3 12.2 0.00 0.00 0.00 21 1006.9
20260508210103 64 292 3.5 11.3 0.00 0.00 0.00 23 1006.9
20260508205603 64 187 3.5 10.4 0.00 0.00 0.00 24 1006.9
20260508205035 63 292 3.5 11.3 0.00 0.00 0.00 23 1006.9
20260508204537 63 275 3.5 11.3 0.00 0.00 0.00 24 1006.9
20260508204034 64 341 3.5 10.4 0.00 0.00 0.00 25 1007.1
20260508203824 64 274 3.5 10.4 0.00 0.00 0.00 24 1007.1
20260508203034 64 238 3.5 7.8 0.00 0.00 0.00 28 1007.2
20260508202534 63 164 4.3 15.6 0.00 0.00 0.00 26 1007.2
20260508202037 64 265 5.2 15.6 0.00 0.00 0.00 23 1007.2
20260508201626 65 212 4.3 13.9 0.00 0.00 0.00 26 1007.3
20260508201610 64 176 4.3 11.3 0.00 0.00 0.00 26 1007.1
20260508200532 65 218 4.3 13.9 0.00 0.00 0.00 26 1007.4
20260508200029 64 230 3.5 11.3 0.00 0.00 0.00 27 1007.4
20260508195532 65 166 3.5 13.9 0.00 0.00 0.00 27 1007.6
20260508195031 64 221 4.3 13.9 0.00 0.00 0.00 25 1007.4
20260508194531 64 308 4.3 8.7 0.00 0.00 0.00 23 1007.7
20260508194030 65 302 4.3 8.7 0.00 0.00 0.00 26 1007.6
20260508193534 64 339 4.3 11.3 0.00 0.00 0.00 26 1007.8
20260508193029 64 42 4.3 11.3 0.00 0.00 0.00 23 1007.8
20260508192530 64 224 4.3 10.4 0.00 0.00 0.00 24 1007.9
20260508192028 64 225 4.3 13.9 0.00 0.00 0.00 25 1007.9
20260508191531 64 221 4.3 13.9 0.00 0.00 0.00 28 1008.0
20260508191030 63 232 4.3 13.9 0.00 0.00 0.00 21 1008.0
20260508190815 64 290 4.3 12.2 0.00 0.00 0.00 24 1008.0
20260508190029 64 205 4.3 11.3 0.00 0.00 0.00 28 1008.1
20260508185530 64 200 3.5 11.3 0.00 0.00 0.00 26 1008.1
20260508185029 65 295 4.3 8.7 0.00 0.00 0.00 25 1008.0
20260508184529 64 284 3.5 11.3 0.00 0.00 0.00 25 1008.2
20260508184030 64 204 3.5 11.3 0.00 0.00 0.00 25 1008.2
20260508183529 64 299 4.3 11.3 0.00 0.00 0.00 23 1008.2
20260508183030 64 268 3.5 11.3 0.00 0.00 0.00 24 1008.2
20260508182532 64 84 3.5 11.3 0.00 0.00 0.00 25 1008.3
20260508182034 64 263 3.5 14.8 0.00 0.00 0.00 28 1008.3
20260508181531 64 14 4.3 14.8 0.00 0.00 0.00 22 1008.4
20260508181031 64 346 3.5 7.8 0.00 0.00 0.00 25 1008.4
20260508180531 64 275 3.5 7.8 0.00 0.00 0.00 25 1008.4
20260508180029 64 294 3.5 7.8 0.00 0.00 0.00 28 1008.4
20260508175819 63 229 3.5 10.4 0.00 0.00 0.00 26 1008.5
20260508175029 64 298 4.3 10.4 0.00 0.00 0.00 26 1008.6
20260508174525 64 7 3.5 8.7 0.00 0.00 0.00 28 1008.7
20260508174031 65 301 3.5 8.7 0.00 0.00 0.00 32 1008.8
20260508173524 64 260 4.3 8.7 0.00 0.00 0.00 31 1008.8
20260508173022 64 319 3.5 8.7 0.00 0.00 0.00 32 1008.8
20260508172522 64 315 3.5 8.7 0.00 0.00 0.00 30 1008.9
20260508172023 64 206 3.5 7.0 0.00 0.00 0.00 31 1008.9
20260508171605 63 254 3.5 11.3 0.00 0.00 0.00 30 1009.2
20260508171552 63 188 3.5 11.3 0.00 0.00 0.00 32 1009.0
20260508170521 62 257 3.5 8.7 0.00 0.00 0.00 32 1009.1
20260508170022 63 250 2.6 7.8 0.00 0.00 0.00 33 1009.2
20260508165521 63 258 2.6 7.0 0.00 0.00 0.00 37 1009.3
20260508165020 62 178 2.6 7.0 0.00 0.00 0.00 37 1009.4
20260508164516 62 84 2.6 5.2 0.00 0.00 0.00 36 1009.5
20260508164015 62 1 3.5 8.7 0.00 0.00 0.00 37 1009.5
20260508163805 61 189 3.5 8.7 0.00 0.00 0.00 36 1009.6
20260508163017 61 204 3.5 8.7 0.00 0.00 0.00 39 1009.8
20260508162515 60 309 3.5 8.7 0.00 0.00 0.00 43 1009.8
20260508162018 60 332 3.5 12.2 0.00 0.00 0.00 39 1009.9
20260508161517 60 231 3.5 12.2 0.00 0.00 0.00 39 1010.0
20260508161011 60 133 2.6 5.2 0.00 0.00 0.00 39 1010.0
20260508160512 61 172 3.5 10.4 0.00 0.00 0.00 42 1010.1
20260508160300 59 301 3.5 10.4 0.00 0.00 0.00 39 1010.1
20260508155801 60 203 3.5 5.2 0.00 0.00 0.00 36 1010.1
20260508155015 60 196 2.6 5.2 0.00 0.00 0.00 42 1010.0
20260508154811 58 278 2.6 5.2 0.00 0.00 0.00 40 1010.0
20260508154012 58 217 2.6 5.2 0.00 0.00 0.00 38 1009.9
20260508153510 59 343 2.6 5.2 0.00 0.00 0.00 37 1010.0
20260508153012 59 302 2.6 7.8 0.00 0.00 0.00 44 1010.2
20260508152507 58 195 2.6 7.8 0.00 0.00 0.00 39 1010.1
20260508152008 59 249 2.6 7.0 0.00 0.00 0.00 43 1010.2
20260508151508 58 308 2.6 4.3 0.00 0.00 0.00 44 1010.0
20260508151008 57 180 2.6 7.0 0.00 0.00 0.00 41 1010.2
20260508150508 57 240 2.6 7.0 0.00 0.00 0.00 43 1010.4
20260508150007 56 334 2.6 4.3 0.00 0.00 0.00 46 1010.5
20260508145503 56 351 2.6 4.3 0.00 0.00 0.00 45 1010.5
20260508145251 56 316 0.9 4.3 0.00 0.00 0.00 46 1010.5
20260508144506 56 197 2.6 7.0 0.00 0.00 0.00 50 1010.6
20260508144001 55 192 2.6 7.0 0.00 0.00 0.00 55 1010.6
20260508143801 54 68 2.6 7.0 0.00 0.00 0.00 57 1010.6
20260508143754 55 151 0.9 7.0 0.00 0.00 0.00 54 1010.6
20260508142501 54 337 2.6 4.3 0.00 0.00 0.00 61 1010.6
20260508142001 53 337 2.6 4.3 0.00 0.00 0.00 58 1010.7
20260508141501 53 259 0.9 7.0 0.00 0.00 0.00 67 1010.8
20260508141002 53 282 0.9 7.0 0.00 0.00 0.00 68 1010.8
20260508140501 52 179 0.9 5.2 0.00 0.00 0.00 67 1010.8
20260508140004 52 179 2.6 7.0 0.00 0.00 0.00 70 1010.8
20260508135504 52 221 2.6 7.0 0.00 0.00 0.00 73 1010.9
20260508135001 52 180 0.9 5.2 0.00 0.00 0.00 75 1010.9
20260508134501 52 248 0.9 3.5 0.00 0.00 0.00 78 1010.9
20260508134001 51 253 0.9 4.3 0.00 0.00 0.00 79 1010.9
20260508133502 50 264 0.9 4.3 0.00 0.00 0.00 80 1010.9
20260508133001 49 172 0.0 3.5 0.00 0.00 0.00 82 1010.9
20260508132505 49 242 0.9 3.5 0.00 0.00 0.00 82 1011.0
20260508132002 49 243 0.9 3.5 0.00 0.00 0.00 83 1011.1
20260508131728 48 213 2.6 3.5 0.00 0.00 0.00 83 1011.1
20260508131000 48 235 0.9 3.5 0.00 0.00 0.00 85 1011.1
20260508130502 48 237 2.6 3.5 0.00 0.00 0.00 85 1011.1
20260508130249 47 238 2.6 4.3 0.00 0.00 0.00 87 1011.1
20260508125502 47 238 2.6 4.3 0.00 0.00 0.00 88 1011.1
20260508125001 46 241 2.6 3.5 0.00 0.00 0.00 89 1011.2
20260508124502 45 241 0.9 3.5 0.00 0.00 0.00 90 1011.2
20260508124300 45 241 0.9 3.5 0.00 0.00 0.00 92 1011.1
20260508123504 44 243 0.9 3.5 0.00 0.00 0.00 94 1011.2
20260508123056 42 251 0.0 0.0 0.00 0.00 0.00 95 1011.1
20260508123038 43 250 0.0 2.6 0.00 0.00 0.00 95 1011.1
20260508122003 41 251 0.0 0.0 0.00 0.00 0.00 96 1011.1
20260508121747 40 251 0.0 0.0 0.00 0.00 0.00 96 1011.0
20260508121002 40 251 0.0 0.0 0.00 0.00 0.00 96 1011.0
20260508120500 40 251 0.0 0.0 0.00 0.00 0.00 96 1010.8
20260508120002 38 251 0.0 0.0 0.00 0.00 0.00 96 1010.8
20260508115501 38 251 0.0 0.0 0.00 0.00 0.00 95 1010.8
20260508115001 39 251 0.0 0.0 0.00 0.00 0.00 96 1010.6
20260508114501 37 251 0.0 0.0 0.00 0.00 0.00 95 1010.6
20260508114007 36 251 0.0 0.0 0.00 0.00 0.00 95 1010.7
20260508113502 36 251 0.0 0.0 0.00 0.00 0.00 95 1010.7
20260508113002 35 251 0.0 0.0 0.00 0.00 0.00 95 1010.6
20260508112501 35 251 0.0 0.0 0.00 0.00 0.00 95 1010.5
20260508112001 35 251 0.0 0.0 0.00 0.00 0.00 94 1010.5
20260508111502 35 251 0.0 0.0 0.00 0.00 0.00 94 1010.5
20260508111004 35 251 0.0 0.0 0.00 0.00 0.00 94 1010.5
20260508110503 36 251 0.0 0.0 0.00 0.00 0.00 94 1010.4
20260508110001 36 251 0.0 0.0 0.00 0.00 0.00 95 1010.5
20260508105501 36 251 0.0 0.0 0.00 0.00 0.00 94 1010.4
20260508105003 36 251 0.0 0.0 0.00 0.00 0.00 94 1010.4
20260508104504 36 251 0.0 0.0 0.00 0.00 0.00 94 1010.3
20260508104001 35 251 0.0 0.0 0.00 0.00 0.00 94 1010.4
20260508103502 36 251 0.0 0.0 0.00 0.00 0.00 94 1010.2
20260508103003 35 251 0.0 0.0 0.00 0.00 0.00 94 1010.1
20260508102503 35 251 0.0 0.0 0.00 0.00 0.00 93 1010.2
20260508102003 36 251 0.0 0.0 0.00 0.00 0.00 94 1010.0
20260508101503 35 251 0.0 0.0 0.00 0.00 0.00 94 1010.1
20260508101003 35 251 0.0 0.0 0.00 0.00 0.00 94 1010.1
20260508100501 35 251 0.0 0.0 0.00 0.00 0.00 93 1010.2
20260508100001 35 251 0.0 0.0 0.00 0.00 0.00 93 1010.2
20260508095729 35 251 0.0 0.0 0.00 0.00 0.00 93 1010.2
20260508095001 35 251 0.0 0.0 0.00 0.00 0.00 93 1010.2
20260508094744 35 251 0.0 0.0 0.00 0.00 0.00 93 1010.1
20260508094002 35 251 0.0 0.0 0.00 0.00 0.00 92 1010.3
20260508093501 36 251 0.0 0.0 0.00 0.00 0.00 92 1010.2
20260508093241 36 251 0.0 0.0 0.00 0.00 0.00 93 1010.2
20260508092458 36 251 0.0 0.0 0.00 0.00 0.00 92 1010.2
20260508092016 36 251 0.0 0.0 0.00 0.00 0.00 92 1010.2
20260508092007 36 251 0.0 0.0 0.00 0.00 0.00 92 1010.2
20260508091242 36 251 0.0 0.0 0.00 0.00 0.00 92 1010.3
20260508090456 36 251 0.0 0.0 0.00 0.00 0.00 93 1010.4
20260508090237 36 251 0.0 0.0 0.00 0.00 0.00 93 1010.4
20260508085735 36 251 0.0 0.0 0.00 0.00 0.00 92 1010.4
20260508084951 36 251 0.0 0.0 0.00 0.00 0.00 92 1010.3
20260508084449 37 251 0.0 0.0 0.00 0.00 0.00 92 1010.3
20260508083952 37 251 0.0 0.0 0.00 0.00 0.00 92 1010.3
20260508083732 37 251 0.0 0.0 0.00 0.00 0.00 92 1010.3
20260508082949 37 251 0.0 0.0 0.00 0.00 0.00 92 1010.4
20260508082449 37 251 0.0 0.0 0.00 0.00 0.00 92 1010.4
20260508081944 37 251 0.0 0.0 0.00 0.00 0.00 92 1010.4
20260508081445 37 251 0.0 0.0 0.00 0.00 0.00 92 1010.4
20260508080946 36 251 0.0 0.0 0.00 0.00 0.00 91 1010.4
20260508080444 37 251 0.0 0.0 0.00 0.00 0.00 90 1010.4
20260508075945 37 251 0.0 0.0 0.00 0.00 0.00 90 1010.3
20260508075445 37 251 0.0 0.0 0.00 0.00 0.00 91 1010.4
20260508074940 37 251 0.0 0.0 0.00 0.00 0.00 90 1010.5
20260508074441 37 251 0.0 0.0 0.00 0.00 0.00 90 1010.5
20260508073944 38 251 0.0 0.0 0.00 0.00 0.00 90 1010.5
20260508073659 38 251 0.0 0.0 0.00 0.00 0.00 89 1010.6
20260508072940 38 251 0.0 0.0 0.00 0.00 0.00 90 1010.6
20260508072734 38 251 0.0 0.0 0.00 0.00 0.00 89 1010.7
20260508072223 38 251 0.0 0.0 0.00 0.00 0.00 90 1010.7
20260508071440 38 251 0.0 0.0 0.00 0.00 0.00 89 1010.7
20260508070941 38 251 0.0 0.0 0.00 0.00 0.00 89 1010.7
20260508070437 38 251 0.0 0.0 0.00 0.00 0.00 89 1010.8
20260508065937 39 251 0.0 0.0 0.00 0.00 0.00 89 1010.9
20260508065720 38 251 0.0 0.0 0.00 0.00 0.00 89 1011.0
20260508065224 39 251 0.0 0.0 0.00 0.00 0.00 89 1011.0
20260508064435 38 251 0.0 0.0 0.00 0.00 0.00 89 1011.1
20260508063942 38 251 0.0 0.0 0.00 0.00 0.00 89 1011.0
20260508063436 39 251 0.0 0.0 0.00 0.00 0.00 88 1011.1
20260508062936 40 251 0.0 0.0 0.00 0.00 0.00 88 1011.1
20260508062437 40 251 0.0 0.0 0.00 0.00 0.00 88 1011.3
20260508061931 39 251 0.0 0.0 0.00 0.00 0.00 89 1011.3
20260508061432 40 251 0.0 0.0 0.00 0.00 0.00 88 1011.2
20260508061003 40 251 0.0 0.0 0.00 0.00 0.00 88 1011.2
20260508060953 40 251 0.0 0.0 0.00 0.00 0.00 87 1011.3
20260508060231 40 251 0.0 0.0 0.00 0.00 0.00 89 1011.4
20260508055431 40 251 0.0 0.0 0.00 0.00 0.00 88 1011.4
20260508055215 40 251 0.0 0.0 0.00 0.00 0.00 88 1011.3
20260508054727 40 251 0.0 0.0 0.00 0.00 0.00 86 1011.2
20260508053931 40 251 0.0 0.9 0.00 0.00 0.00 86 1011.1